Regional Weather Roundup
Issued by NWS

Home | Current Version | Previous Version | Graphics & Text | Print | Product List | Glossary On
Versions: 1 2 3 4 5 6 7 8 9 10 11 12 13 14 15 16 17 18 19 20 21 22 23 24 25 26 27 28 29 30 31 32 33 34 35 36 37 38 39 40 41 42 43 44 45 46 47 48 49 50
000
ASUS45 KCYS 221010
RWRWY

WYOMING REGIONAL WEATHER ROUNDUP
NATIONAL WEATHER SERVICE CHEYENNE WY
400 AM MDT FRI SEP 22 2017

NOTE:  "FAIR" INDICATES FEW OR NO CLOUDS BELOW 12,000 FEET
WITH NO SIGNIFICANT WEATHER AND/OR OBSTRUCTIONS TO VISIBILITY.

WYZ001-221100-
YELLOWSTONE NATIONAL PARK

CITY           SKY/WX    TMP DP  RH WIND       PRES   REMARKS
LK YELLOWSTONE NOT AVBL
W YELLOWSTONE  NOT AVBL

$$
WYZ002>013-054>058-071-098>099-221100-
NORTHERN WYOMING

CITY           SKY/WX    TMP DP  RH WIND       PRES   REMARKS
JACKSON        CLOUDY    34  33  96 CALM      29.81R
CODY           LGT SNOW  32  30  93 NW7       29.93R FOG     WCI  26
GREYBULL       CLOUDY    41  38  89 W18       29.87R
WORLAND        CLOUDY    40  39  97 NW14      29.87R WCI  32
SHERIDAN       CLOUDY    44  39  82 W12       29.91F
BUFFALO        CLOUDY    43  33  68 NW13      29.90F
GILLETTE       FAIR      41  35  79 NW16      29.84S
HULETT         PTSUNNY   45  34  65 N5        29.84S
NEWCASTLE      FAIR      54  37  54 CALM      29.73S

$$
WYZ014>020-022>026-101>103-221100-
CENTRAL WYOMING

CITY           SKY/WX    TMP DP  RH WIND       PRES   REMARKS
BIG PINEY      MOCLDY    43  36  76 S12       29.79F
PINEDALE       LGT RAIN  39  37  93 E10       29.84F WCI  32
DUBOIS         LGT SNOW  32  32 100 SE7       29.82F WCI  26
LANDER           N/A    N/A N/A N/A MISG      29.83R
RIVERTON       CLOUDY    41  36  82 N8        29.84R
CASPER         MOCLDY    37  31  78 NE6       29.85R WCI  32
DOUGLAS        FAIR      39  32  76 NW9       29.83R WCI  33

$$
WYZ021-027>030-104>119-221100-
SOUTHERN WYOMING

CITY           SKY/WX    TMP DP  RH WIND       PRES   REMARKS
EVANSTON       LGT RAIN  34  34 100 SE6       29.82S WCI  29
KEMMERER         N/A     36  34  93 SW13      29.83R WCI  27
FORT BRIDGER   CLOUDY    39  39 100 SW7       29.84R WCI  34
ROCK SPRINGS   CLOUDY    41  36  82 NW8       29.84R
DIXON          FAIR      62  20  20 S15G25    29.81R
RAWLINS        FAIR      57  24  28 SW18      29.76F
SARATOGA       FAIR      54  21  28 SW13      29.81S
LARAMIE        FAIR      44  21  40 S7        29.84S
CHEYENNE       FAIR      47  36  65 N9        29.82R
TORRINGTON     FAIR      48  38  68 NW12      29.75R
PINE BLUFFS    FAIR      45  36  70 N3        29.80R

$$



USA.gov is the U.S. government's official web portal to all federal, state and local government web resources and services.